Location: Shades State Park
(39.9310°N, 87.0690°W)
Time: 18:39:50
(UTC-04:00)

ISS - Visible Passes

Search period start: 30 July 2016 00:00
Search period end: 09 August 2016 00:00
Orbit: 401 x 404 km, 51.6° (Epoch: 30 July)

Date Brightness Start Highest point End Pass type
(mag) Time Alt. Az. Time Alt. Az. Time Alt. Az.
30 Jul 0.2 01:18:44 10° NNW 01:19:20 11° N 01:19:20 11° N visible
30 Jul -0.4 22:46:47 10° WNW 22:49:06 18° NNW 22:51:25 10° NNE visible
31 Jul 0.1 00:25:45 10° NNW 00:26:34 11° N 00:27:23 10° NNE visible
31 Jul -0.9 21:53:10 10° W 21:55:57 25° NNW 21:58:44 10° NNE visible
31 Jul 0.0 23:32:12 10° NNW 23:33:16 11° N 23:34:20 10° NNE visible
01 Aug 0.3 01:09:00 10° NNW 01:09:15 11° NNW 01:09:15 11° NNW visible
01 Aug -0.2 22:38:22 10° NW 22:39:58 13° NNW 22:41:36 10° NNE visible
02 Aug -0.1 00:16:17 10° NNW 00:17:32 12° N 00:17:57 11° NNE visible
02 Aug -0.4 21:44:33 10° WNW 21:46:43 16° NNW 21:48:54 10° NNE visible
02 Aug -0.1 23:23:22 10° NNW 23:24:13 11° N 23:25:04 10° NNE visible
03 Aug 0.3 00:59:08 10° NNW 00:59:14 10° NNW 00:59:14 10° NNW visible
03 Aug -0.2 22:29:55 10° NNW 22:30:53 11° N 22:31:50 10° NNE visible
04 Aug -0.3 00:06:26 10° NNW 00:07:56 15° N 00:07:56 15° N visible
04 Aug -0.3 21:36:04 10° NW 21:37:32 12° N 21:39:00 10° NNE visible
04 Aug -0.4 23:13:41 10° NNW 23:15:06 12° N 23:16:30 10° NE visible
05 Aug -0.3 22:20:49 10° NNW 22:21:44 11° N 22:22:40 10° NNE visible
05 Aug -0.6 23:56:30 10° NNW 23:57:57 18° N 23:57:57 18° N visible
06 Aug -0.3 21:27:29 10° NNW 21:28:22 11° N 21:29:14 10° NNE visible
06 Aug -0.9 23:03:44 10° NNW 23:05:52 16° NNE 23:06:42 15° NE visible
07 Aug -0.6 22:10:58 10° NNW 22:12:32 13° NNE 22:14:05 10° NE visible
07 Aug -0.8 23:46:35 10° NW 23:48:02 22° NNW 23:48:02 22° NNW visible
08 Aug -1.6 22:53:44 10° NNW 22:56:28 24° NNE 22:56:47 24° NE visible
